Time,TemperatureF,DewpointF,PressureIn,WindDirection,WindDirectionDegrees,WindSpeedMPH,WindSpeedGustMPH,Humidity,HourlyPrecipIn,Conditions,Clouds,dailyrainin,SoftwareType,DateUTC
2013-11-26 00:00:00,27.8,13.0,30.25,SE,128,2.0,7.0,55,0.00,,,0.00,weatherlink.com 1.10,2013-11-26 05:00:00,
2013-11-26 00:15:00,27.6,13.0,30.26,SSE,166,0.0,3.0,55,0.00,,,0.00,weatherlink.com 1.10,2013-11-26 05:15:00,
2013-11-26 00:31:00,27.4,13.0,30.25,ENE,72,0.0,2.0,56,0.00,,,0.00,weatherlink.com 1.10,2013-11-26 05:31:00,
2013-11-26 00:46:00,27.1,13.0,30.26,ESE,107,1.0,4.0,56,0.00,,,0.00,weatherlink.com 1.10,2013-11-26 05:46:00,
2013-11-26 01:01:00,26.8,13.0,30.25,SSW,208,0.0,4.0,57,0.00,,,0.00,weatherlink.com 1.10,2013-11-26 06:01:00,
2013-11-26 01:16:00,26.1,13.0,30.24,SE,129,0.0,1.0,59,0.00,,,0.00,weatherlink.com 1.10,2013-11-26 06:16:00,
2013-11-26 01:31:00,25.8,14.0,30.24,SE,133,0.0,3.0,60,0.00,,,0.00,weatherlink.com 1.10,2013-11-26 06:31:00,
2013-11-26 01:46:00,25.4,14.0,30.26,SE,146,2.0,2.0,62,0.00,,,0.00,weatherlink.com 1.10,2013-11-26 06:46:00,
2013-11-26 02:01:00,26.1,14.0,30.26,SW,220,2.0,7.0,60,0.00,,,0.00,weatherlink.com 1.10,2013-11-26 07:01:00,
2013-11-26 02:16:00,26.9,14.0,30.27,SSE,160,0.0,6.0,59,0.00,,,0.00,weatherlink.com 1.10,2013-11-26 07:16:00,
2013-11-26 02:31:00,27.3,14.0,30.27,SE,130,0.0,5.0,58,0.00,,,0.00,weatherlink.com 1.10,2013-11-26 07:31:00,
2013-11-26 02:46:00,27.5,14.0,30.26,SW,222,1.0,6.0,57,0.00,,,0.00,weatherlink.com 1.10,2013-11-26 07:46:00,
2013-11-26 03:01:00,27.5,14.0,30.25,SE,134,1.0,6.0,57,0.00,,,0.00,weatherlink.com 1.10,2013-11-26 08:01:00,
2013-11-26 03:16:00,27.6,14.0,30.25,South,186,3.0,4.0,56,0.00,,,0.00,weatherlink.com 1.10,2013-11-26 08:16:00,
2013-11-26 03:31:00,27.7,14.0,30.25,SE,135,0.0,6.0,56,0.00,,,0.00,weatherlink.com 1.10,2013-11-26 08:31:00,
2013-11-26 03:46:00,27.7,13.0,30.24,ESE,103,2.0,3.0,55,0.00,,,0.00,weatherlink.com 1.10,2013-11-26 08:46:00,
2013-11-26 04:01:00,28.0,14.0,30.25,SSE,148,1.0,5.0,55,0.00,,,0.00,weatherlink.com 1.10,2013-11-26 09:01:00,
2013-11-26 04:16:00,28.2,14.0,30.25,SSW,207,5.0,8.0,56,0.00,,,0.00,weatherlink.com 1.10,2013-11-26 09:16:00,
2013-11-26 04:31:00,28.0,16.0,30.26,West,264,0.0,5.0,62,0.00,,,0.00,weatherlink.com 1.10,2013-11-26 09:31:00,
2013-11-26 04:46:00,27.5,19.0,30.27,East,93,1.0,6.0,70,0.00,,,0.00,weatherlink.com 1.10,2013-11-26 09:46:00,
2013-11-26 05:01:00,27.1,20.0,30.28,ENE,63,0.0,7.0,74,0.00,,,0.00,weatherlink.com 1.10,2013-11-26 10:01:00,
2013-11-26 05:17:00,26.3,21.0,30.26,West,264,0.0,6.0,81,0.00,,,0.00,weatherlink.com 1.10,2013-11-26 10:17:00,
2013-11-26 05:31:00,25.8,22.0,30.26,SSE,151,0.0,3.0,84,0.00,,,0.00,weatherlink.com 1.10,2013-11-26 10:31:00,
2013-11-26 05:46:00,25.7,22.0,30.27,East,84,1.0,2.0,84,0.00,,,0.00,weatherlink.com 1.10,2013-11-26 10:46:00,
2013-11-26 06:01:00,25.6,22.0,30.27,East,79,0.0,3.0,85,0.00,,,0.00,weatherlink.com 1.10,2013-11-26 11:01:00,
2013-11-26 06:16:00,25.5,22.0,30.26,ESE,122,2.0,3.0,86,0.00,,,0.00,weatherlink.com 1.10,2013-11-26 11:16:00,
2013-11-26 06:31:00,25.4,22.0,30.28,SW,219,2.0,3.0,87,0.00,,,0.00,weatherlink.com 1.10,2013-11-26 11:31:00,
2013-11-26 06:46:00,25.5,22.0,30.30,WSW,248,1.0,6.0,87,0.00,,,0.00,weatherlink.com 1.10,2013-11-26 11:46:00,
2013-11-26 07:01:00,25.5,22.0,30.29,SE,143,1.0,4.0,87,0.00,,,0.00,weatherlink.com 1.10,2013-11-26 12:01:00,
2013-11-26 07:16:00,25.5,23.0,30.29,SSW,210,1.0,4.0,88,0.00,,,0.00,weatherlink.com 1.10,2013-11-26 12:16:00,
2013-11-26 07:31:00,25.4,22.0,30.29,SW,235,0.0,3.0,87,0.00,,,0.00,weatherlink.com 1.10,2013-11-26 12:31:00,
2013-11-26 07:46:00,25.5,22.0,30.31,WSW,253,3.0,6.0,87,0.00,,,0.00,weatherlink.com 1.10,2013-11-26 12:46:00,
2013-11-26 08:02:00,25.6,22.0,30.32,WSW,238,2.0,4.0,87,0.00,,,0.00,weatherlink.com 1.10,2013-11-26 13:02:00,
2013-11-26 08:16:00,26.0,22.0,30.31,West,267,0.0,5.0,86,0.00,,,0.00,weatherlink.com 1.10,2013-11-26 13:16:00,
2013-11-26 08:31:00,26.5,23.0,30.32,WNW,297,3.0,4.0,86,0.00,,,0.00,weatherlink.com 1.10,2013-11-26 13:31:00,
2013-11-26 08:46:00,27.0,23.0,30.31,WNW,290,2.0,5.0,86,0.00,,,0.00,weatherlink.com 1.10,2013-11-26 13:46:00,
2013-11-26 09:01:00,27.8,24.0,30.32,West,271,1.0,7.0,85,0.00,,,0.00,weatherlink.com 1.10,2013-11-26 14:01:00,
2013-11-26 09:17:00,28.4,24.0,30.31,NNE,25,0.0,5.0,84,0.00,,,0.00,weatherlink.com 1.10,2013-11-26 14:17:00,
2013-11-26 19:09:00,30.4,28.0,30.24,SE,129,0.0,1.0,90,0.00,,,0.00,weatherlink.com 1.10,2013-11-27 00:09:00,
2013-11-26 19:17:00,30.5,28.0,30.24,SE,128,0.0,1.0,91,0.00,,,0.00,weatherlink.com 1.10,2013-11-27 00:17:00,
2013-11-26 19:32:00,30.5,29.0,30.23,East,89,0.0,1.0,92,0.00,,,0.00,weatherlink.com 1.10,2013-11-27 00:32:00,
2013-11-26 19:47:00,30.7,29.0,30.23,East,86,0.0,1.0,93,0.00,,,0.00,weatherlink.com 1.10,2013-11-27 00:47:00,
2013-11-26 20:02:00,30.8,29.0,30.23,ESE,105,0.0,1.0,93,0.01,,,0.01,weatherlink.com 1.10,2013-11-27 01:02:00,
2013-11-26 20:17:00,30.8,29.0,30.21,East,90,0.0,0.0,93,0.01,,,0.01,weatherlink.com 1.10,2013-11-27 01:17:00,
2013-11-26 20:32:00,30.8,29.0,30.21,ENE,63,0.0,3.0,93,0.01,,,0.01,weatherlink.com 1.10,2013-11-27 01:32:00,
2013-11-26 20:47:00,30.9,29.0,30.20,East,94,0.0,0.0,94,0.01,,,0.01,weatherlink.com 1.10,2013-11-27 01:47:00,
2013-11-26 21:02:00,30.9,29.0,30.19,ESE,105,0.0,1.0,94,0.00,,,0.01,weatherlink.com 1.10,2013-11-27 02:02:00,
2013-11-26 21:17:00,30.8,29.0,30.19,ESE,117,0.0,0.0,94,0.00,,,0.01,weatherlink.com 1.10,2013-11-27 02:17:00,
2013-11-26 21:32:00,30.9,29.0,30.18,ESE,117,0.0,0.0,94,0.00,,,0.01,weatherlink.com 1.10,2013-11-27 02:32:00,
2013-11-26 21:47:00,30.8,29.0,30.16,East,98,0.0,0.0,94,0.00,,,0.01,weatherlink.com 1.10,2013-11-27 02:47:00,
2013-11-26 22:02:00,31.0,30.0,30.15,East,98,0.0,0.0,94,0.00,,,0.01,weatherlink.com 1.10,2013-11-27 03:02:00,
2013-11-26 22:17:00,30.9,29.0,30.14,East,97,0.0,0.0,94,0.00,,,0.01,weatherlink.com 1.10,2013-11-27 03:17:00,
2013-11-26 22:32:00,30.9,30.0,30.13,East,98,0.0,0.0,95,0.00,,,0.01,weatherlink.com 1.10,2013-11-27 03:32:00,
2013-11-26 22:47:00,31.0,30.0,30.12,East,90,0.0,0.0,95,0.00,,,0.01,weatherlink.com 1.10,2013-11-27 03:47:00,
2013-11-26 23:02:00,31.1,30.0,30.11,ESE,108,0.0,0.0,95,0.00,,,0.01,weatherlink.com 1.10,2013-11-27 04:02:00,
2013-11-26 23:17:00,31.3,30.0,30.10,NE,36,0.0,0.0,95,0.00,,,0.01,weatherlink.com 1.10,2013-11-27 04:17:00,
2013-11-26 23:32:00,31.5,31.0,30.09,WNW,287,0.0,0.0,96,0.00,,,0.01,weatherlink.com 1.10,2013-11-27 04:32:00,
2013-11-26 23:48:00,31.6,31.0,30.07,WNW,287,0.0,0.0,96,0.00,,,0.01,weatherlink.com 1.10,2013-11-27 04:48:00,